Погода в Замглае

Украина / Черниговская область     51°48′52″N   31°09′42″E
темп.,
°C
ветер,
м/с
пор.,
м/с
влажн.,
%
обл.,
%
осадки,
мм/ч
давл.,
гПа
погр.,
м
4 марта, чт
чт423:00−1з49885 0.0 1021204
02:00−1зюз49886 0.0 1019223
05:00−3юз49940 0.0 1015201
08:00−1юз512941 0.0 1012310
11:00+2юз510989 0.0 1009377
14:00+4зюз5119837 0.0 1007672
17:00+4з4119294 0.1 1006335
20:00+2сз5129697 0.6 1007588
5 марта, пт
пт523:000сз489582 0.0 1008402
02:00−1зсз369785 0.1 1009223
05:00−2сз359671 0.0 1011160
08:00−2с348785 0.0 1012244
11:00+1с347391 0.0 1013617
14:00+1с346596 0.0 10141124
17:00−1ссз3570100 0.0 1015137
20:00−2ссз2271100 0.0 101743
6 марта, сб
сб623:00−2ссз4974100 0.0 1019501
02:00−4ссз497191 0.0 1020510
05:00−4сз38650 0.0 1020415
08:00−3зсз47592 0.0 1022499
11:00−1зсз585775 0.0 10221261
14:000ссз566288 0.5 10221142
17:00−1ссз356598 0.3 1022506
20:00−3зсз257049 0.3 1024155
7 марта, вс
вс723:00−3з487225 0.0 1024388
02:00−4зюз5116612 0.0 1022475
05:00−3юз7146146 0.0 1019632
08:00−2зюз9166573 0.0 10151019
11:00+1зюз111764100 0.0 10121340
14:00+2з101667100 0.0 10111396
17:00+1з81476100 0.0 10091157
20:000з8158396 0.0 1008930
8 марта, пн
пн823:000з10177993 0.0 10071172
02:00−1зсз7137897 0.5 10081172
05:00−3зсз6126988 0.0 10091003
08:00−3зсз696855 0.0 1011983
11:00−2зсз566299 0.0 10121068
14:00−1зсз4660100 0.1 10131250
17:00−2зсз3568100 0.1 1012895
20:00−3ссз247996 0.1 1014224